Tracking 32412 objects as of 6-Dec-2025
HD Live streaming from Space Station
objects crossing your sky now

COSMOS 507

Track COSMOS 507 now!
10-day predictions
COSMOS 507 is classified as:


NORAD ID: 6120
Int'l Code: 1972-057D
Perigee: 1,418.3 km
Apogee: 1,502.8 km
Inclination: 74.0 °
Period: 115.0 minutes
Semi major axis: 7831 km
RCS: 0.7026 m2 (medium)
Launch date: July 20, 1972
Source: Commonwealth of Independent States (former USSR) (CIS)
Launch site: PLESETSK MISSILE AND SPACE COMPLEX (PKMTR)
Your satellite tracking list
Your tracking list is empty




NASA's NSSDC Master Catalog

Two Line Element Set (TLE):
1 06120U 72057D   25339.32456610 -.00000023  00000-0 -47629-4 0  9998
2 06120  74.0268 106.7200 0053982 180.4107 194.3139 12.52652907440683
Source of the keplerian elements: AFSPC